Temperature
4 4 4 4 5 5 5 5 5 5 5 5 5 5 5 5 5 5 5 5 6 6 6 6 6 6 6 6 6 6 6 7 7 7 7 7 7 7 7 7 7 8 8
3 3 4 4 4 4 4 4 4 4 4 4 4 4 4 4 4 4 5 5 5 5 5 5 5 5 5 5 6 6 6 6 6 6 6 6 6 6 6 7 7 7 7
3 3 3 3 3 3 3 3 3 3 3 3 3 3 3 4 4 4 4 4 4 4 4 4 4 5 5 5 5 5 5 5 5 5 5 5 5 5 6 6 6 6 6
2 2 3 3 3 3 3 3 3 3 2 2 3 3 3 3 3 3 3 3 4 4 4 4 4 4 4 4 4 4 4 5 5 5 5 5 5 4 5 5 6 6 6
1 2 2 2 2 2 2 2 2 2 2 2 2 2 2 2 2 2 3 3 3 3 3 3 3 3 3 3 4 4 4 4 4 4 4 4 4 4 4 4 5 5 6
1 1 2 2 2 2 2 2 2 2 2 2 1 1 2 2 2 2 2 2 2 2 3 3 3 3 3 3 3 3 3 3 3 3 3 3 4 4 4 4 4 4 5
0 1 1 1 1 1 1 1 1 1 1 1 1 1 1 1 1 1 1 1 2 2 2 2 2 2 2 2 2 2 2 2 2 2 3 3 3 3 3 3 3 3 4
0 0 0 1 1 1 1 0 0 1 0 1 1 0 0 0 0 1 1 1 1 1 1 1 1 1 1 2 2 2 2 2 2 2 2 2 3 3 3 3 3 2 3
-0 -0 -0 -0 -0 -0 -0 -0 -0 -0 -0 -0 -0 -0 -0 -0 -0 -0 -0 -0 -0 0 0 1 1 1 1 1 1 1 1 1 1 1 1 2 2 2 2 2 2 2 2
-1 -1 -1 -1 -1 -1 -1 -1 -1 -1 -1 -1 -1 -1 -1 -1 -1 -1 -1 -1 -1 -1 -0 -0 0 0 0 0 0 0 1 1 1 1 1 1 2 2 2 2 2 2 2
-1 -1 -1 -1 -1 -1 -1 -1 -1 -1 -1 -1 -1 -1 -1 -1 -1 -2 -2 -2 -1 -1 -1 -1 -1 -1 -1 -0 -0 -0 -0 -0 0 0 0 0 1 1 1 1 1 1 1
-2 -2 -2 -2 -2 -2 -2 -2 -2 -2 -2 -2 -2 -2 -2 -2 -2 -2 -2 -2 -2 -2 -2 -2 -1 -1 -1 -1 -1 -1 -1 -1 -1 -1 -0 -0 0 0 1 1 1 1 1
-2 -2 -2 -3 -3 -3 -2 -2 -2 -2 -2 -3 -2 -2 -3 -3 -3 -3 -3 -3 -3 -3 -2 -2 -2 -2 -2 -2 -2 -2 -2 -2 -1 -1 -1 -1 -1 -0 0 0 0 1 1
-3 -3 -3 -3 -3 -3 -3 -3 -3 -3 -3 -3 -3 -3 -3 -3 -3 -4 -4 -4 -4 -3 -3 -3 -3 -3 -3 -3 -3 -2 -2 -2 -2 -2 -2 -1 -1 -1 -0 -0 -0 0 0
-3 -3 -3 -3 -3 -3 -4 -4 -4 -4 -4 -4 -4 -4 -4 -4 -4 -4 -4 -4 -4 -4 -4 -4 -4 -3 -3 -3 -3 -3 -3 -3 -2 -2 -2 -2 -2 -1 -1 -1 -1 -1 -0
-4 -4 -4 -4 -4 -4 -4 -4 -4 -4 -4 -4 -4 -4 -4 -4 -5 -5 -5 -5 -5 -5 -5 -4 -4 -4 -4 -3 -3 -3 -3 -3 -3 -3 -3 -2 -2 -2 -2 -1 -1 -1 -1
-4 -4 -4 -4 -4 -4 -5 -5 -5 -5 -5 -5 -5 -5 -5 -5 -5 -5 -5 -5 -5 -5 -5 -5 -5 -4 -4 -4 -4 -4 -4 -4 -3 -3 -3 -3 -3 -3 -2 -2 -2 -2 -1
-4 -4 -4 -5 -5 -5 -5 -5 -5 -5 -5 -5 -5 -5 -5 -6 -6 -6 -6 -6 -6 -6 -6 -5 -5 -5 -4 -4 -4 -4 -4 -4 -4 -4 -3 -3 -3 -3 -3 -3 -2 -2 -2
-5 -5 -5 -5 -5 -6 -6 -6 -6 -6 -6 -6 -6 -6 -6 -6 -6 -6 -6 -6 -6 -6 -6 -6 -6 -6 -5 -5 -5 -5 -5 -5 -4 -4 -4 -4 -3 -3 -3 -3 -3 -3 -2
-5 -5 -6 -6 -6 -6 -6 -6 -6 -6 -6 -6 -6 -7 -7 -7 -7 -6 -6 -6 -7 -6 -6 -6 -6 -6 -6 -5 -5 -6 -6 -5 -5 -5 -4 -4 -4 -3 -3 -3 -3 -3 -3
-6 -6 -6 -6 -7 -7 -7 -7 -7 -7 -7 -7 -7 -7 -7 -7 -7 -7 -7 -7 -7 -7 -7 -7 -6 -6 -6 -6 -6 -6 -6 -6 -5 -5 -5 -4 -4 -4 -4 -4 -4 -3 -3
-6 -7 -7 -7 -7 -7 -8 -8 -7 -7 -7 -7 -7 -7 -7 -7 -7 -7 -7 -7 -7 -7 -7 -7 -7 -7 -6 -6 -6 -6 -6 -6 -6 -5 -5 -5 -5 -4 -4 -4 -4 -4 -4
-7 -7 -8 -8 -8 -8 -8 -8 -8 -8 -8 -8 -8 -8 -8 -8 -8 -8 -8 -8 -8 -8 -8 -8 -7 -7 -7 -7 -6 -6 -6 -6 -6 -6 -5 -5 -5 -5 -4 -4 -4 -4 -4
-8 -8 -8 -8 -8 -8 -9 -9 -9 -8 -8 -8 -8 -8 -8 -8 -8 -8 -8 -8 -8 -8 -8 -8 -8 -8 -7 -7 -7 -7 -6 -6 -6 -6 -6 -6 -5 -5 -5 -5 -5 -5 -5
-8 -9 -9 -9 -9 -9 -9 -9 -9 -9 -9 -9 -9 -9 -9 -8 -8 -8 -8 -9 -8 -8 -8 -8 -8 -8 -8 -7 -7 -7 -7 -7 -7 -6 -6 -6 -6 -6 -6 -6 -5 -5 -5
-9 -9 -9 -9 -9 -9 -9 -9 -9 -9 -9 -9 -9 -9 -9 -9 -9 -9 -9 -9 -9 -8 -8 -8 -8 -8 -8 -8 -7 -7 -7 -7 -7 -7 -7 -7 -6 -6 -6 -6 -6 -6 -6
Wind_Speed
1 1 2 3 4 4 4 4 4 3 3 2 2 2 2 2 3 4 5 5 6 6 4 4 4 4 2 2 2 2 2 2 1 1 1 1 0 1 1 2 2 3 4
1 2 2 3 3 3 3 3 3 2 2 1 1 0 0 1 1 3 4 5 5 5 4 3 2 3 2 2 2 2 1 2 2 0 0 1 1 1 1 1 1 1 3
4 3 3 3 2 2 2 2 2 2 2 2 2 2 2 2 2 3 3 5 5 4 4 3 2 2 2 1 2 1 1 1 2 1 0 1 2 2 1 1 1 1 2
3 3 3 3 3 2 2 2 2 2 1 2 2 2 1 1 2 2 3 5 5 4 4 3 3 1 1 1 2 2 1 1 2 2 1 1 1 1 2 2 1 1 2
3 3 3 3 2 2 2 2 2 2 1 1 2 1 0 0 1 2 3 4 4 4 4 3 3 2 2 2 2 2 2 1 2 2 2 2 2 2 2 3 3 2 2
3 2 2 1 1 1 1 1 2 1 1 1 1 2 2 1 1 2 2 3 3 3 3 4 3 3 3 3 3 2 2 2 2 2 2 2 2 2 2 3 3 3 3
3 2 2 2 1 1 1 0 1 1 1 1 1 2 2 2 3 2 2 3 3 3 4 4 3 3 3 3 3 3 3 3 3 3 3 3 3 2 3 3 3 4 3
3 3 3 3 3 2 2 1 1 1 2 2 2 2 3 2 3 3 3 3 3 4 4 4 4 5 4 4 3 3 3 3 3 4 4 3 3 3 3 3 3 3 3
2 3 3 3 3 3 3 2 2 2 2 2 2 3 3 3 4 4 3 3 4 5 4 4 5 5 4 4 4 4 4 4 4 4 4 4 4 3 3 3 3 4 4
2 2 2 2 2 2 2 1 2 3 3 2 2 3 3 4 4 4 4 5 5 5 5 5 5 5 5 4 4 4 4 4 4 4 4 5 4 4 3 3 4 4 5
3 2 2 1 1 1 1 2 2 2 2 3 3 3 3 4 4 4 5 5 6 6 5 5 5 5 5 5 4 5 5 5 5 5 5 6 5 4 4 3 4 4 4
2 2 2 1 1 1 2 2 2 3 3 3 3 4 4 4 4 5 6 6 6 6 6 6 6 6 6 5 5 6 6 6 6 6 6 6 5 5 5 4 5 5 5
2 1 1 1 2 2 3 3 3 3 3 3 4 4 4 4 5 5 5 6 6 6 6 6 6 6 6 6 6 6 7 7 7 6 6 7 6 7 5 5 5 5 5
3 2 2 3 3 3 3 3 3 3 4 4 4 5 5 5 5 5 6 6 6 6 6 7 7 7 7 7 7 7 7 7 7 7 7 7 7 8 7 6 7 5 5
3 3 3 3 3 3 3 3 4 4 4 4 5 5 5 5 5 5 6 6 6 6 7 7 7 7 7 7 7 7 7 7 7 7 7 8 9 10 8 7 6 6 5
4 4 4 4 4 4 4 4 4 4 4 5 6 6 5 5 5 5 5 6 6 6 6 7 8 8 8 9 10 8 7 8 8 8 8 8 9 10 11 11 10 8 7
5 5 5 5 5 5 5 5 5 4 5 5 6 5 5 6 6 6 6 6 6 6 7 8 8 9 9 11 11 10 8 8 8 8 8 7 8 9 8 9 10 10 11
5 5 5 5 4 4 4 4 4 5 5 5 6 6 6 6 6 6 7 7 6 6 7 8 8 9 10 11 11 11 8 8 9 9 9 9 8 8 8 7 8 9 9
4 4 4 5 4 4 4 4 4 5 5 6 6 6 6 7 7 7 7 7 6 7 7 8 8 9 10 11 11 10 7 7 9 9 9 9 9 11 10 8 8 9 9
3 3 4 4 4 4 3 4 5 5 6 6 7 7 7 7 8 8 8 7 7 8 8 8 8 9 10 12 12 11 7 8 8 8 8 10 11 11 11 9 8 10 9
4 3 3 4 4 4 3 4 5 6 6 6 6 7 7 7 8 8 7 7 7 7 7 9 9 9 10 11 12 12 7 8 8 7 7 8 11 12 12 11 9 11 9
5 4 4 5 5 4 4 5 6 6 5 6 6 7 7 7 6 7 7 7 7 7 7 8 8 7 8 10 11 13 13 11 9 8 7 8 11 12 13 11 11 11 8
4 4 4 5 5 4 4 6 7 6 6 6 7 7 7 6 6 7 7 6 6 6 7 7 7 7 6 7 11 13 14 14 10 8 11 11 11 11 9 10 10 7 5
4 4 4 5 6 6 5 5 6 5 5 6 7 6 6 6 6 5 5 6 6 6 7 7 7 7 6 6 6 6 7 10 9 8 9 10 10 8 8 7 6 5 5
4 4 4 5 7 7 7 6 6 4 5 6 6 6 6 6 5 5 5 6 7 8 8 7 6 7 7 8 10 7 6 6 7 5 4 4 4 4 4 5 5 4 5
4 5 5 5 6 6 7 7 5 4 5 5 6 5 5 5 4 4 5 7 8 10 11 11 9 8 10 12 12 12 11 9 7 5 5 5 5 5 5 5 5 5 5
Wind_Direction
221 120 110 103 98 93 98 103 96 88 84 73 65 55 30 9 11 16 19 20 18 18 32 29 22 21 18 1 3 4 353 357 353 19 348 336 314 62 52 33 40 30 21
153 134 118 113 117 120 116 113 109 100 94 89 82 115 98 354 347 357 12 14 16 13 18 29 20 14 9 11 7 18 342 335 352 17 32 310 299 326 316 321 342 8 21
192 182 168 158 140 143 154 147 137 114 96 83 74 53 40 15 9 360 355 356 4 3 6 4 9 8 8 344 319 347 348 308 315 345 153 196 247 294 279 266 282 323 352
184 179 176 173 176 186 171 156 145 124 114 108 107 110 90 320 306 319 324 334 352 357 353 354 353 349 350 311 302 328 302 296 290 315 324 283 248 245 285 291 288 305 299
190 188 185 187 190 176 169 167 147 132 134 130 140 142 140 271 311 322 327 327 336 344 345 338 338 327 308 294 289 301 306 279 277 289 299 308 302 255 252 275 288 294 273
207 212 193 149 114 86 103 148 150 160 166 159 157 172 197 230 290 317 318 317 316 322 327 323 312 311 304 284 270 270 273 274 272 283 276 267 271 267 259 265 275 281 279
206 208 192 176 174 173 173 134 185 231 207 189 206 215 218 220 230 250 269 293 304 304 300 308 301 292 292 288 276 259 269 271 266 260 267 265 267 273 267 258 273 281 284
213 215 212 196 195 199 208 203 224 266 237 229 242 240 234 230 241 244 244 257 267 275 282 284 285 282 277 284 283 257 254 255 259 265 264 268 268 264 261 253 257 275 276
232 230 224 206 201 205 217 215 226 258 263 257 253 245 239 239 247 253 252 255 269 277 277 276 274 279 278 270 281 265 249 248 252 258 262 266 266 261 257 251 238 236 255
255 255 235 220 227 224 236 235 233 247 255 255 264 279 262 253 247 252 258 259 268 270 270 271 270 271 276 269 266 276 254 244 254 259 259 266 270 263 258 247 248 243 243
251 248 252 249 248 268 256 258 258 273 276 272 273 274 274 275 259 250 253 258 265 266 260 262 265 266 265 262 256 267 256 246 254 258 258 266 269 261 256 249 243 245 245
254 241 244 262 284 271 265 263 268 275 279 278 272 266 269 274 271 263 258 260 260 264 260 260 260 262 262 257 254 263 260 247 251 255 258 264 269 265 257 245 247 248 251
269 261 253 252 258 263 264 265 265 271 283 280 271 268 266 267 268 270 271 269 262 262 262 259 255 258 259 259 255 258 260 248 246 249 253 258 261 264 261 252 250 252 260
260 254 260 261 264 265 263 262 268 270 277 275 268 267 266 266 267 271 269 267 266 257 253 256 256 256 257 256 253 257 260 249 248 249 251 253 253 259 258 255 248 252 253
275 269 267 270 275 277 273 268 272 273 274 269 266 265 267 267 268 270 270 270 267 263 253 253 255 256 254 251 249 251 258 253 253 254 254 256 256 259 258 257 250 244 237
273 277 277 278 276 274 276 278 275 274 270 264 266 269 269 269 268 268 270 272 269 268 258 250 251 254 256 257 256 254 258 257 252 254 258 259 257 263 265 266 264 256 242
270 273 273 271 270 268 268 267 270 275 269 267 270 270 268 270 271 272 273 270 268 268 266 257 250 253 256 259 258 258 263 258 250 249 254 261 263 266 262 267 269 263 256
270 274 278 281 283 278 276 276 275 273 270 269 269 271 271 272 273 269 266 265 267 263 263 264 255 255 260 261 259 260 261 260 253 247 247 252 257 259 257 259 261 258 252
274 276 280 284 282 280 276 277 280 278 275 273 272 270 267 267 269 266 264 264 264 264 262 262 260 256 260 261 260 260 256 259 258 255 250 247 252 261 262 259 259 265 264
302 299 302 304 291 285 278 275 279 279 275 275 275 272 265 261 263 263 265 264 261 260 262 264 260 257 259 261 261 257 252 259 260 258 255 254 257 261 258 251 252 258 263
313 313 311 305 296 295 291 285 284 280 282 284 282 276 268 264 263 263 262 261 261 262 261 263 263 257 258 261 258 256 249 252 256 256 256 256 263 265 260 257 254 260 266
321 321 317 310 307 303 294 288 285 286 291 289 287 282 276 271 268 261 262 258 255 258 260 262 266 261 259 260 258 257 256 256 253 254 255 258 264 265 265 261 262 268 269
312 315 309 310 311 305 293 285 289 294 296 297 292 289 285 278 272 262 258 258 251 251 256 257 262 266 262 258 263 262 259 258 254 255 259 265 267 268 267 267 270 268 257
312 315 316 313 311 311 303 289 292 295 295 296 298 296 292 288 282 272 254 252 250 251 254 255 259 266 269 264 261 260 266 262 261 261 265 267 268 266 267 269 265 256 249
312 310 307 307 307 312 309 305 303 300 299 298 301 302 299 294 287 283 266 259 252 249 253 254 256 259 264 266 269 266 260 255 255 257 254 254 260 259 260 259 256 255 254
309 312 312 311 310 313 312 311 311 306 301 305 309 307 305 302 295 291 293 285 275 273 269 267 268 267 270 280 271 269 269 267 258 252 245 248 250 253 256 258 260 257 253
Height
1499 1501 1503 1505 1506 1508 1510 1511 1512 1514 1515 1516 1517 1518 1519 1520 1521 1521 1521 1522 1522 1523 1523 1524 1524 1524 1525 1525 1525 1525 1526 1526 1526 1526 1526 1527 1528 1528 1529 1530 1530 1531 1531
1496 1498 1500 1502 1504 1506 1507 1509 1510 1511 1513 1514 1515 1516 1516 1517 1518 1518 1518 1519 1519 1520 1520 1521 1521 1521 1522 1522 1522 1523 1523 1523 1524 1524 1524 1524 1525 1525 1526 1526 1527 1528 1528
1494 1496 1498 1500 1502 1504 1505 1507 1508 1509 1510 1511 1512 1513 1514 1514 1515 1515 1515 1516 1516 1517 1517 1517 1518 1518 1519 1519 1519 1520 1520 1519 1521 1522 1523 1522 1521 1521 1522 1522 1523 1524 1525
1492 1494 1495 1497 1499 1501 1503 1505 1506 1507 1508 1509 1510 1510 1510 1511 1511 1512 1512 1513 1514 1514 1514 1514 1515 1515 1515 1516 1516 1517 1517 1517 1517 1518 1519 1520 1520 1520 1518 1519 1520 1521 1521
1489 1491 1493 1495 1497 1499 1501 1502 1503 1504 1506 1507 1507 1507 1508 1508 1509 1509 1509 1510 1510 1511 1511 1511 1512 1512 1512 1512 1513 1513 1514 1514 1514 1515 1515 1516 1517 1516 1516 1515 1515 1516 1517
1487 1489 1491 1493 1494 1496 1498 1499 1500 1502 1503 1504 1504 1505 1505 1505 1505 1505 1505 1506 1506 1507 1507 1508 1508 1508 1508 1508 1509 1509 1510 1510 1511 1511 1512 1512 1513 1513 1513 1512 1511 1511 1512
1485 1486 1488 1489 1491 1493 1494 1496 1497 1498 1499 1500 1501 1501 1502 1502 1502 1502 1502 1502 1502 1502 1503 1503 1504 1504 1504 1504 1505 1505 1505 1506 1506 1507 1508 1508 1509 1509 1510 1509 1508 1507 1507
1482 1483 1485 1487 1488 1490 1491 1492 1494 1494 1495 1496 1497 1498 1498 1498 1498 1498 1498 1498 1498 1498 1499 1499 1499 1500 1500 1500 1500 1500 1501 1501 1502 1502 1503 1503 1504 1505 1505 1506 1505 1503 1503
1480 1481 1483 1484 1485 1486 1488 1489 1490 1490 1491 1492 1493 1493 1493 1493 1494 1494 1494 1494 1494 1494 1494 1495 1495 1495 1495 1495 1495 1495 1496 1496 1497 1498 1498 1499 1499 1500 1500 1501 1502 1502 1499
1478 1479 1480 1481 1482 1483 1484 1485 1486 1487 1487 1488 1488 1488 1489 1489 1489 1489 1489 1489 1489 1489 1489 1489 1489 1490 1490 1490 1490 1490 1490 1491 1491 1492 1493 1493 1494 1494 1495 1496 1496 1497 1496
1476 1477 1478 1478 1479 1480 1481 1482 1482 1483 1483 1483 1483 1483 1484 1484 1484 1484 1484 1484 1484 1484 1484 1484 1484 1484 1484 1484 1485 1485 1485 1485 1486 1487 1487 1488 1489 1489 1489 1490 1491 1491 1491
1474 1475 1475 1475 1476 1477 1477 1478 1478 1479 1479 1479 1479 1479 1479 1479 1478 1478 1479 1479 1479 1479 1478 1478 1478 1478 1478 1479 1479 1479 1479 1479 1480 1481 1482 1482 1483 1483 1484 1484 1484 1485 1485
1472 1472 1472 1472 1473 1473 1474 1474 1475 1475 1475 1475 1475 1474 1474 1474 1473 1473 1473 1473 1473 1473 1473 1473 1472 1472 1473 1473 1473 1473 1474 1474 1474 1475 1476 1476 1477 1477 1478 1478 1478 1478 1478
1470 1469 1469 1469 1470 1470 1470 1470 1470 1470 1470 1470 1470 1469 1469 1469 1468 1468 1467 1467 1467 1467 1467 1467 1467 1467 1467 1467 1467 1468 1468 1468 1468 1469 1469 1470 1471 1471 1472 1472 1472 1472 1472
1467 1467 1466 1466 1466 1466 1466 1466 1466 1466 1465 1465 1465 1464 1464 1464 1463 1462 1462 1462 1462 1461 1461 1461 1461 1461 1461 1461 1461 1462 1462 1462 1462 1462 1463 1464 1465 1465 1466 1466 1466 1467 1466
1464 1464 1464 1463 1463 1462 1462 1461 1461 1461 1461 1460 1460 1459 1458 1458 1457 1457 1456 1456 1456 1455 1455 1455 1454 1454 1455 1455 1456 1456 1456 1456 1456 1456 1457 1458 1459 1459 1460 1460 1461 1461 1461
1461 1461 1460 1460 1459 1459 1458 1457 1456 1456 1456 1455 1454 1454 1453 1452 1451 1451 1451 1450 1450 1449 1449 1449 1448 1448 1448 1449 1449 1450 1450 1450 1450 1450 1451 1451 1452 1453 1454 1454 1455 1455 1455
1458 1458 1457 1456 1455 1455 1454 1453 1452 1451 1450 1449 1448 1447 1447 1446 1446 1445 1445 1444 1444 1443 1442 1442 1441 1441 1441 1442 1443 1444 1444 1444 1444 1444 1445 1445 1446 1446 1447 1448 1448 1448 1448
1456 1455 1454 1453 1451 1450 1449 1448 1447 1445 1444 1443 1442 1441 1441 1440 1439 1439 1439 1438 1438 1437 1436 1436 1435 1435 1434 1436 1436 1437 1437 1437 1437 1438 1439 1439 1439 1440 1441 1442 1441 1441 1442
1452 1451 1450 1449 1447 1446 1445 1443 1442 1440 1439 1438 1437 1436 1435 1435 1434 1433 1433 1432 1431 1430 1430 1429 1429 1428 1428 1429 1430 1431 1432 1431 1431 1431 1432 1433 1433 1434 1435 1435 1435 1435 1435
1449 1448 1446 1445 1443 1442 1440 1438 1437 1436 1434 1433 1432 1431 1430 1429 1428 1427 1426 1425 1424 1424 1423 1422 1422 1422 1422 1422 1423 1424 1425 1425 1425 1425 1425 1425 1426 1427 1428 1429 1429 1428 1430
1445 1444 1442 1441 1439 1438 1436 1434 1432 1431 1430 1428 1426 1425 1424 1423 1422 1420 1419 1418 1418 1417 1416 1415 1415 1415 1415 1415 1416 1417 1418 1419 1419 1418 1418 1419 1420 1420 1421 1421 1422 1423 1423
1442 1441 1439 1437 1436 1434 1432 1430 1428 1427 1425 1423 1421 1420 1418 1417 1415 1414 1412 1411 1411 1410 1409 1409 1408 1408 1408 1409 1409 1410 1411 1412 1412 1412 1412 1412 1413 1413 1413 1414 1415 1415 1415
1439 1438 1436 1434 1432 1431 1429 1427 1424 1422 1420 1418 1416 1414 1412 1410 1409 1406 1405 1405 1404 1404 1403 1403 1402 1401 1401 1402 1403 1403 1404 1404 1405 1405 1405 1406 1406 1406 1406 1407 1407 1408 1408
1437 1435 1433 1431 1429 1427 1425 1423 1421 1419 1416 1414 1412 1410 1407 1404 1402 1401 1400 1399 1398 1398 1398 1397 1397 1396 1395 1395 1397 1397 1398 1398 1398 1398 1398 1399 1399 1399 1399 1399 1400 1400 1401
1434 1432 1430 1429 1427 1425 1422 1420 1418 1416 1413 1410 1408 1405 1403 1400 1398 1397 1395 1395 1394 1393 1393 1392 1392 1391 1391 1390 1390 1391 1392 1392 1392 1392 1391 1391 1392 1391 1392 1392 1392 1393 1393